Weather in Razumnoye

Russia / Belgorod Oblast     50°32′01″N   36°41′22″E
temp.,
°C
wind,
m/s
gust,
m/s
humid.,
%
clouds,
%
prec.,
mm/h
press.,
hPa
HPBL,
m
21 april, wed
wed2100:00+7nne4696100 9.1 1001352
03:00+6nw5794100 10.4 1003534
06:00+6wnw4793100 0.2 1006467
09:00+7w3687100 0.5 1009555
12:00+10sw5875100 0.2 10111100
15:00+11wsw7106715 0.5 10121556
18:00+10wsw4871100 0.2 1014800
21:00+7wsw348373 0.2 101667
22 april, thu
thu2200:00+5w23916 0.0 101744
03:00+5sw119122 0.0 101811
06:00+5s348816 0.0 101979
09:00+11ssw46725 0.0 1020485
12:00+14sw575773 0.7 10191568
15:00+15sw5754100 2.4 10191571
18:00+14ssw366399 1.1 1019195
21:00+12s3573100 1.3 102097
23 april, fri
fri2300:00+11s377892 0.0 1020127
03:00+10ssw377664 0.0 1019152
06:00+10s3783100 0.0 1020166
09:00+12s587474 0.0 1019427
12:00+15s685634 0.9 10181601
15:00+15ssw685884 1.3 10161322
18:00+14s5106476 0.0 1015406
21:00+12s41267100 0.0 1015357
24 april, sat
sat2400:00+10ssw51188100 0.8 1014739
03:00+9sw5794100 3.6 1013849
06:00+6nw5989100 2.9 1014858
09:00+7wnw577011 2.9 10151094
12:00+11w675197 0.1 10152160
15:00+11w694298 0.1 10152302
18:00+10w57505 0.0 10151402
21:00+7w4870100 0.3 1017579
25 april, sun
sun2500:00+5wsw378274 0.1 1017198
03:00+3wsw37855 0.1 1017163
06:00+2wsw36875 0.0 1018151
09:00+7wsw46615 0.0 10181161
12:00+10wsw564687 0.1 10182133
15:00+11wsw4538100 0.1 10172426
18:00+11wsw234255 0.0 10172062
21:00+7s2250100 0.0 101710